DW9174 Weather Reports


time (UTC)temp
C
wind
direction
speed
KPH
gust
KPH
rain 1hr
cm
rain 24hr
cm
rain mn
cm
humidity
%
barometer
mb
20260510011823 13 261 0.0 0.0 0.00 0.00 0.00 86 1009.3
20260510010841 13 261 0.0 0.0 0.00 0.00 0.00 85 1009.1
20260510005845 14 261 0.0 0.0 0.00 0.00 0.00 85 1008.9
20260510003712 15 261 0.0 0.0 0.00 0.00 0.00 82 1008.6
20260510002712 16 261 0.0 0.0 0.00 0.00 0.00 81 1008.5
20260510001735 16 261 0.0 0.0 0.00 0.00 0.00 78 1008.4
20260509234448 20 261 0.0 0.0 0.00 0.00 0.00 67 1008.4
20260509233448 21 236 0.0 0.0 0.00 0.00 0.00 63 1008.3
20260509232426 22 236 0.0 0.0 0.00 0.00 0.00 55 1008.3
20260509230349 22 245 0.0 0.0 0.00 0.00 0.00 55 1008.2
20260509225346 22 161 0.0 0.0 0.00 0.00 0.00 55 1008.2
20260509224348 22 136 0.0 0.0 0.00 0.00 0.00 53 1008.2
20260509223412 22 200 0.0 0.0 0.00 0.00 0.00 56 1008.2
20260509222409 22 199 0.0 0.0 0.00 0.00 0.00 55 1008.2
20260509215153 22 265 0.0 6.4 0.00 0.00 0.00 55 1008.2
20260509214118 22 132 0.0 3.2 0.00 0.00 0.00 53 1008.1
20260509213044 22 342 1.6 4.8 0.00 0.00 0.00 54 1008.1
20260509212058 22 300 0.0 1.6 0.00 0.00 0.00 57 1008.2
20260509211112 22 303 3.2 8.0 0.00 0.00 0.00 54 1008.2
20260509210047 22 294 1.6 8.0 0.00 0.00 0.00 55 1008.2
20260509205019 22 116 0.0 4.8 0.00 0.00 0.00 54 1008.2
20260509204022 22 160 0.0 0.0 0.00 0.00 0.00 55 1008.3
20260509200711 22 239 1.6 3.2 0.00 0.00 0.00 55 1008.3
20260509195637 22 284 0.0 8.0 0.00 0.00 0.00 55 1008.4
20260509194605 22 227 0.0 8.0 0.00 0.00 0.00 53 1008.4
20260509193607 22 101 0.0 9.7 0.00 0.00 0.00 53 1008.5
20260509192548 22 108 0.0 9.7 0.00 0.00 0.00 56 1008.6
20260509191559 21 145 0.0 0.0 0.00 0.00 0.00 57 1008.7
20260509190605 21 126 1.6 11.3 0.00 0.00 0.00 52 1008.8
20260509185534 21 134 1.6 6.4 0.00 0.00 0.00 57 1009.0
20260509184555 21 117 0.0 6.4 0.00 0.00 0.00 55 1009.2
20260509183557 20 115 1.6 9.7 0.00 0.00 0.00 54 1009.3
20260509182609 20 63 0.0 6.4 0.00 0.00 0.00 56 1009.4
20260509180423 20 121 1.6 9.7 0.00 0.00 0.00 57 1009.7
20260509175440 19 328 0.0 1.6 0.00 0.00 0.00 60 1009.9
20260509174435 19 45 0.0 4.8 0.00 0.00 0.00 60 1010.0
20260509173446 18 36 0.0 0.0 0.00 0.00 0.00 62 1010.3
20260509172447 18 5 0.0 0.0 0.00 0.00 0.00 61 1010.6
20260509171454 18 49 0.0 0.0 0.00 0.00 0.00 62 1010.7
20260509170426 18 51 0.0 0.0 0.00 0.00 0.00 60 1010.9
20260509165445 18 51 0.0 1.6 0.00 0.00 0.00 60 1011.0
20260509164420 19 85 0.0 6.4 0.00 0.00 0.00 59 1010.8
20260509163416 19 348 0.0 0.0 0.00 0.00 0.00 60 1010.6
20260509162350 19 155 0.0 4.8 0.00 0.00 0.00 61 1010.4
20260509161320 19 125 0.0 0.0 0.00 0.00 0.00 62 1010.5
20260509160306 19 47 0.0 4.8 0.00 0.00 0.00 61 1010.8
20260509155253 19 315 0.0 4.8 0.00 0.00 0.00 61 1010.9
20260509154228 18 136 1.6 8.0 0.00 0.00 0.00 60 1010.9
20260509151022 18 129 0.0 4.8 0.00 0.00 0.00 59 1011.0
20260509150000 17 61 0.0 3.2 0.00 0.00 0.00 63 1011.1
20260509143833 16 9 0.0 1.6 0.00 0.00 0.00 64 1011.3
20260509142837 15 315 0.0 1.6 0.00 0.00 0.00 65 1011.3
20260509141852 15 273 0.0 6.4 0.00 0.00 0.00 65 1011.4
20260509140827 15 181 0.0 0.0 0.00 0.00 0.00 69 1011.5
20260509135824 15 130 0.0 0.0 0.00 0.00 0.00 68 1011.2
20260509133603 15 142 0.0 1.6 0.00 0.00 0.00 70 1010.9
20260509132619 15 226 0.0 1.6 0.00 0.00 0.00 70 1011.0
20260509131637 15 152 0.0 0.0 0.00 0.00 0.00 71 1011.2
20260509130637 14 121 0.0 0.0 0.00 0.00 0.00 74 1011.3
20260509125657 14 118 0.0 1.6 0.00 0.00 0.00 76 1011.2
20260509123546 13 86 0.0 0.0 0.00 0.00 0.00 79 1011.0
20260509122518 13 306 0.0 1.6 0.00 0.00 0.00 78 1011.0
20260509120409 12 117 0.0 3.2 0.00 0.00 0.00 80 1011.2
20260509115402 12 105 0.0 0.0 0.00 0.00 0.00 80 1011.2
20260509114354 12 105 0.0 0.0 0.00 0.00 0.00 82 1011.1
20260509113322 12 101 0.0 1.6 0.00 0.00 0.00 84 1011.0
20260509110027 11 139 0.0 0.0 0.00 0.00 0.00 85 1010.8
20260509104956 11 139 0.0 0.0 0.00 0.00 0.00 84 1010.8
20260509103955 11 139 0.0 0.0 0.00 0.00 0.00 83 1010.6
20260509101750 11 138 0.0 0.0 0.00 0.00 0.00 81 1010.6
20260509100727 11 138 0.0 0.0 0.00 0.00 0.00 79 1010.5
20260509095740 11 138 0.0 0.0 0.00 0.00 0.00 75 1010.6
20260509094745 11 138 0.0 0.0 0.00 0.00 0.00 73 1010.4
20260509093807 11 138 0.0 0.0 0.00 0.00 0.00 72 1010.5
20260509092735 11 138 0.0 0.0 0.00 0.00 0.00 72 1010.4
20260509090541 12 136 0.0 0.0 0.00 0.00 0.00 71 1010.4
20260509085520 12 123 0.0 0.0 0.00 0.00 0.00 71 1010.5
20260509084528 12 136 0.0 0.0 0.00 0.00 0.00 71 1010.6
20260509082315 12 118 0.0 1.6 0.00 0.00 0.00 71 1010.7
20260509081310 12 159 0.0 1.6 0.00 0.00 0.00 72 1010.7
20260509080317 12 150 0.0 0.0 0.00 0.00 0.00 73 1010.7
20260509075246 12 136 0.0 0.0 0.00 0.00 0.00 74 1010.7
20260509074235 11 126 0.0 1.6 0.00 0.00 0.00 74 1010.7
20260509073253 11 128 0.0 3.2 0.00 0.00 0.00 75 1010.7
20260509072249 11 126 0.0 4.8 0.00 0.00 0.00 78 1010.6
20260509071223 10 119 0.0 4.8 0.00 0.00 0.00 82 1010.7
20260509070221 10 148 0.0 0.0 0.00 0.00 0.00 86 1010.8
20260509065236 9 233 0.0 0.0 0.00 0.00 0.00 87 1010.9
20260509064238 9 242 0.0 0.0 0.00 0.00 0.00 88 1011.0
20260509063209 9 242 0.0 0.0 0.00 0.00 0.00 87 1011.1
20260509062229 9 242 0.0 0.0 0.00 0.00 0.00 87 1011.1
20260509061239 9 242 0.0 0.0 0.00 0.00 0.00 88 1011.2
20260509055118 9 242 0.0 0.0 0.00 0.00 0.00 89 1011.2
20260509051848 8 242 0.0 0.0 0.00 0.00 0.00 89 1011.5
20260509045758 8 242 0.0 0.0 0.00 0.00 0.00 87 1011.4
20260509044742 8 242 0.0 0.0 0.00 0.00 0.00 87 1011.6
20260509042600 8 242 0.0 0.0 0.00 0.00 0.00 86 1011.6
20260509041558 8 242 0.0 0.0 0.00 0.00 0.00 85 1011.6
20260509034314 8 242 0.0 0.0 0.00 0.00 0.00 83 1011.7
20260509033306 8 242 0.0 0.0 0.00 0.00 0.00 81 1011.7
20260509032244 9 242 0.0 0.0 0.00 0.00 0.00 81 1011.7
20260509031300 9 242 0.0 0.0 0.00 0.00 0.00 81 1011.7
20260509030321 9 242 0.0 0.0 0.00 0.00 0.00 82 1011.8
20260509025319 9 242 0.0 0.0 0.00 0.00 0.00 81 1011.9
20260509024251 10 242 0.0 0.0 0.00 0.00 0.00 80 1011.9
20260509023253 10 242 0.0 0.0 0.00 0.00 0.00 79 1012.0
20260509022246 10 242 0.0 0.0 0.00 0.00 0.00 79 1011.9
20260509021231 10 242 0.0 0.0 0.00 0.00 0.00 77 1011.9
20260509015025 11 242 0.0 0.0 0.00 0.00 0.00 77 1011.9
20260509014041 12 242 0.0 0.0 0.00 0.00 0.00 75 1011.9
20260509011840 12 242 0.0 0.0 0.00 0.00 0.00 75 1011.8